Location: Noverd
(38.0910°N, 121.6877°W)
Time: 06:19:46
(UTC+00:00)

Cosmos 2100 Rocket - Pass Details

Date: 26 May 2026
Orbit: 956 x 999 km, 82.9° (Epoch: 8 June)

Event Time Altitude Azimuth Distance (km) Brightness Sun altitude
Rises 03:42:03 0° 221° (SW) 3,674 7.1 -4.8°
Reaches altitude 10° 03:45:03 10° 234° (SW) 2,737 6.7 -5.3°
Maximum altitude 03:50:03 25° 287° (WNW) 1,901 6.6 -6.1°
Drops below altitude 10° 03:55:08 10° 341° (NNW) 2,768 7.3 -6.9°
Sets 03:58:13 0° 354° (N) 3,725 7.7 -7.4°
